Content
SEND FEEDBACK

Daily
Averages
Monthly
Summary
United States of America

AGAT, GUAM


Home > North America > United States > Guam
Elevation: 364 feet     Latitude: 13 33N     Longitude: 144 50E

WEATHER
 
SELECT A DAY
Number of Records: 209,285;   Date Range: 1/1/95 - 9/16/14
 
SHARE

PRINT THIS DATA

[ ← Previous Day ]
WEATHER ALMANAC - FEBRUARY 13, 2014
[ Next Day → ]
[ °C ]   °F
Weather ElementAverageHighLow
Temperature80.8 °F84.9 °F (11:54 am)75.9 °F (11:54 pm)
Dewpoint71.1 °F72 °F (1:54 am)70 °F (3:54 pm)
Humidity72.5 %82 % (11:54 pm)63 % (11:54 am)
Barometer29.87 in29.93 in (9:54 am)29.82 in (2:54 pm)
Wind Speed7.8 mph12.7 mph (9:54 am)
Weather ElementAverage
Visibility10 mi
Wind DirectionENE (83 °)

Weather ElementTotal
Precipitation---
Cooling Degree Days15.4 (Base 65)
Growing Degree Days30.4 (Base 50)
Averaged from 23 records on February 13, 2014
WEATHER CONDITIONS BREAKOUT
WIND DIRECTION BREAKOUT
WEATHER BY HOUR - FEBRUARY 13, 2014
[ °C ]   °F
Local TimeTemperatureDewpointHumidityBarometerVisibilityWind DirectionWind SpeedGust SpeedPrecipitationEventsConditions
1:54 AM79.0 °F72.0 °F79 %29.85 in10.0 miEast (80°)4.6 mphMostly Cloudy
2:54 AM78.1 °F72.0 °F81 %29.84 in10.0 miEast (80°)3.5 mphPartly Cloudy
3:54 AM78.1 °F71.1 °F79 %29.84 in10.0 miESE (110°)5.8 mphClear
4:54 AM78.1 °F71.1 °F79 %29.84 in10.0 miESE (110°)8.1 mphClear
5:54 AM78.1 °F71.1 °F79 %29.86 in10.0 miESE (110°)6.9 mphClear
6:54 AM78.1 °F71.1 °F79 %29.87 in10.0 miEast (90°)6.9 mphClear
7:54 AM80.1 °F72.0 °F76 %29.90 in10.0 miEast (90°)9.2 mphClear
8:54 AM82.0 °F72.0 °F71 %29.92 in10.0 miESE (110°)6.9 mphPartly Cloudy
9:54 AM84.0 °F72.0 °F67 %29.93 in10.0 miEast (80°)12.7 mphPartly Cloudy
10:54 AM84.0 °F71.1 °F65 %29.91 in10.0 miESE (110°)10.4 mphPartly Cloudy
11:54 AM84.9 °F71.1 °F63 %29.89 in10.0 miENE (70°)11.5 mphPartly Cloudy
12:54 PM84.9 °F71.1 °F63 %29.86 in10.0 miEast (90°)12.7 mphPartly Cloudy
1:54 PM84.9 °F71.1 °F63 %29.84 in10.0 miEast (100°)9.2 mphPartly Cloudy
2:54 PM84.9 °F71.1 °F63 %29.82 in10.0 miEast (100°)10.4 mphPartly Cloudy
3:54 PM84.0 °F70.0 °F63 %29.83 in10.0 miEast (80°)9.2 mphPartly Cloudy
4:54 PM82.9 °F71.1 °F67 %29.84 in10.0 miESE (110°)9.2 mphClear
5:54 PM82.0 °F71.1 °F69 %29.85 in10.0 miENE (70°)6.9 mphClear
6:54 PM81.0 °F70.0 °F69 %29.86 in10.0 miENE (60°)6.9 mphClear
7:54 PM79.0 °F71.1 °F77 %29.88 in10.0 miNE (50°)5.8 mphClear
8:54 PM79.0 °F71.1 °F77 %29.89 in10.0 miNE (50°)5.8 mphPartly Cloudy
9:54 PM79.0 °F71.1 °F77 %29.90 in10.0 miENE (60°)5.8 mphClear
10:54 PM77.0 °F70.0 °F79 %29.90 in10.0 miNE (50°)6.9 mphClear
11:54 PM75.9 °F70.0 °F82 %29.90 in10.0 miNE (50°)4.6 mphClear
Hourly data recorded from PGUM, located miles away from Agat, Guam







STORIES FROM OUR PARTNERS